Orbital Elements
Epoch 1996 Mar. 18.0 TT = JDT 2450160.5
T 1996 Mar. 5.46310 TT MPCW
q 2.6268764 (2000.0) P Q
n 0.09304212 Peri. 314.91026 -0.22680665 +0.93479278
a 4.8233598 Node 300.12629 -0.78062270 -0.34231393
e 0.4553845 Incl. 18.42375 -0.58239759 +0.09478199
P 10.59
From 144 observations 2006 Apr. 5-2017 May 5, mean residual 0".5.
|